Location: Buckland
(65.9785°N, 161.1281°W)
Time: 07:38:45
(UTC+00:00)

Transit 2A Rocket - Pass Details

Date: 26 November 2020
Orbit: 592 x 910 km, 66.7° (Epoch: 21 January)

Event Time Altitude Azimuth Distance (km) Brightness Sun altitude
Exits shadow 17:23:00 19° 268° (W) 1,878 6.5 -14.2°
Maximum altitude 17:27:07 83° 355° (N) 785 5.0 -13.8°
Drops below altitude 10° 17:32:13 10° 85° (E) 2,215 8.4 -13.3°
Sets 17:34:28 0° 86° (E) 3,087 9.4 -13.1°
